CAPE
56 144 173 147 181 169 198 155 246 352 486 686 924 1014 975 992 761 690 608 695 666 1010 1164 1252 1688 1698 2140 2276 2282 2210 2420 2458 2564 2719 2761 2726 3000 2830 2601 2564 2571 2556 2503 2572 2828 3095 3250 3329 3136 2763 2915 2887 2733 2861 2984 2803 2840 2838 2689 2776 2813 2603 2597 2744 2171 2282 2216 2600 2666 2490 2296 2156 2035 2129
222 331 97 62 164 139 107 154 121 257 256 300 365 633 871 1055 832 814 715 729 713 780 931 1200 1508 1730 1654 1935 2058 2003 2416 2472 2499 2790 3004 2934 2814 2584 2480 2521 2574 2614 2630 2616 2591 2555 2592 2816 3142 2954 2820 2875 2878 2955 2948 2958 2990 2810 2980 3050 2740 2514 2608 2527 2588 2616 2554 2538 2676 2668 2547 2319 2120 1916
202 99 76 46 126 124 180 146 94 65 93 24 193 198 327 708 971 943 855 648 850 767 855 1010 1221 1172 1257 1238 1293 1442 1786 2071 2186 2660 2872 2984 2908 2787 2839 2659 2642 2674 2696 2700 2692 2653 2626 2592 2930 3120 3151 3141 2994 2835 2753 3027 3109 2916 2786 2834 2572 2668 2714 2784 2892 3161 2854 2776 2736 2629 2545 2461 2303 2210
32 10 35 68 107 166 154 24 2 2 3 17 141 180 240 286 528 936 941 535 611 825 896 976 1013 1104 1178 1346 1296 1387 1511 1625 1764 2152 2598 2882 2753 2973 3052 2902 2725 2703 2676 2651 2628 2605 2573 2558 2626 2958 3195 3303 3337 3314 3048 3082 3012 2808 2568 2339 2386 2555 2644 2902 2976 3047 2880 2908 2930 2956 2867 2790 2674 2549
11 66 57 73 139 152 111 3 0 0 0 1 16 74 198 219 312 445 598 654 724 868 921 971 1040 1144 1248 1328 1365 1364 1454 1713 1644 1527 1995 2387 2631 2880 3040 3202 2920 2766 2766 2770 2766 2750 2727 2702 2701 2703 2596 2506 2910 3299 3400 3484 3424 2781 2592 2127 2224 2219 2322 2765 3582 3693 3533 3500 3304 3222 3110 2991 2862 2755
4 15 20 65 136 155 77 0 0 0 1 1 5 8 53 101 165 292 319 462 453 679 755 839 953 958 1106 1172 1199 1289 1474 1735 1776 1767 1850 2032 2338 2518 2812 3015 3087 2741 2649 2659 2668 2683 2695 2700 2691 2657 2637 2667 2562 2733 3048 3084 2808 2496 2064 2146 2318 2274 2475 3226 3880 3827 3809 3677 3539 3432 3349 3196 3085 2950
4 5 46 88 144 122 35 10 2 4 4 6 6 4 10 26 78 200 330 388 447 483 626 758 704 771 1050 1026 1018 1418 1546 1774 1816 1903 1862 1986 2198 2431 2521 2750 2848 2529 2338 2344 2372 2405 2427 2433 2430 2414 2398 2368 2343 2330 2330 2261 2160 2038 2093 2073 1979 2347 3224 3390 3356 3407 3480 3509 3522 3477 3402 3295 3198 3089
3 6 5 7 36 70 49 28 30 28 14 10 12 3 5 12 59 192 253 450 481 435 400 578 571 705 814 1030 1334 1415 1492 1681 1875 1847 1772 2134 2138 2133 2294 2452 2638 2600 2327 2288 2333 2389 2420 2430 2396 2378 2351 2330 2310 2296 2308 2100 2039 2109 2148 2074 2103 2200 2516 2606 2732 2854 2979 3088 3149 3220 3243 3238 3209 3188
172 100 94 62 75 38 53 61 56 42 22 6 10 6 10 24 100 190 227 230 304 383 394 484 584 723 874 974 1059 1310 1260 1389 1271 1363 1330 1366 1276 1537 1630 1874 2252 2030 1968 2035 2129 2198 2250 2244 2236 2213 2186 2152 2099 2040 1863 1746 1852 1873 1913 1918 1977 1970 2020 2058 2096 2081 2225 2498 2702 2824 2964 3068 3151 3168
28 45 50 76 116 72 93 104 98 72 25 14 6 4 12 40 127 173 113 156 245 304 410 490 519 676 660 837 983 1069 1158 1054 1047 1106 1089 1024 1100 1053 1006 1224 1507 1708 1890 2077 2060 1968 1805 1718 1661 1652 1598 1579 1685 1726 1790 1882 1964 1959 1839 1772 1805 1919 2042 2058 2022 2012 2033 2069 2097 2261 2454 2653 2834 2991
39 57 66 104 96 108 92 84 93 68 30 26 18 28 34 64 89 70 68 88 138 240 298 358 484 552 672 800 726 1070 1192 1020 1077 1045 999 983 1040 1237 1129 1347 1546 2062 2111 2006 1625 1731 1721 1636 1681 1739 1884 1955 1996 2011 2067 2133 2205 2272 2320 2342 2323 2244 2156 2108 2104 2121 2147 2132 2084 2010 1941 2066 2322 2583
41 56 72 72 60 47 70 89 76 40 32 30 40 54 74 95 50 42 48 98 186 261 298 326 422 503 569 698 804 906 894 860 880 818 840 815 885 1080 1277 1227 1506 1884 1808 1770 1812 1823 1833 1959 1966 1694 1649 1680 1721 1781 1840 1923 1974 1966 1924 1883 1864 1878 2002 2173 2270 2270 2204 2110 2002 1940 1902 1769 1800 2042
19 26 31 36 37 86 228 403 445 165 245 302 240 242 113 103 98 105 148 212 195 275 280 284 348 372 464 532 623 746 842 881 816 905 792 645 686 818 1026 1176 1358 1505 1478 1501 1535 1712 1721 1846 1941 1906 1915 2015 1650 1872 1394 1445 1546 1580 1584 1572 1569 1637 1725 1922 2167 2287 2318 2286 2213 2158 2140 2071 1893 1983
0 1 4 16 40 115 211 209 258 256 266 288 194 204 208 236 187 132 159 199 244 248 264 274 296 308 304 387 532 634 694 821 798 713 832 738 799 851 790 929 970 1405 1406 1431 1576 1653 1428 1373 1607 1763 1732 1872 1812 1931 2044 2083 1858 1651 1401 1379 1425 1497 1592 1708 1797 1937 2104 2097 2059 2108 2171 2215 2186 2240
1 1 0 0 6 35 30 61 111 268 271 222 146 118 129 184 195 229 253 257 280 287 250 298 326 317 380 430 562 660 773 847 840 828 807 751 861 875 818 810 984 1388 1223 1170 1228 1444 1532 1637 1830 1949 1926 1886 1902 1819 1930 1446 1266 1295 1361 1409 1508 1618 1698 1807 1948 2090 2206 2278 2296 2286 2188 2108 2234 2336
0 0 0 2 5 12 39 107 136 138 117 95 110 98 94 184 268 278 234 159 98 121 230 242 274 332 407 500 616 633 731 868 884 847 693 712 620 740 674 674 548 1101 1222 1072 931 1011 1272 1524 1554 1604 1738 1845 1851 1814 1494 1186 1152 1197 1224 1235 1260 1361 1476 1560 1638 1749 1872 1997 2132 2238 2340 2392 2291 2126
0 0 1 5 10 10 26 44 38 34 28 48 85 130 179 208 205 252 306 312 249 225 148 102 260 248 161 195 174 445 238 158 274 244 296 260 184 166 340 442 581 808 1081 1016 1022 799 908 1041 1048 1100 1263 1316 1405 1363 1051 834 782 806 848 878 886 885 904 943 1005 1146 1339 1554 1773 1944 2094 2241 2482 2604
1 4 9 13 12 11 10 14 19 21 31 32 38 52 57 50 68 126 216 366 336 298 300 201 71 126 217 103 164 456 386 291 384 342 326 191 196 141 185 405 462 612 930 754 709 611 666 851 858 818 1062 1140 1155 1268 1130 814 749 747 757 767 754 720 688 672 690 769 890 1111 1358 1576 1763 1888 2019 2300
8 10 14 18 24 25 23 27 61 64 58 51 48 43 36 44 55 62 104 189 202 232 194 448 319 298 287 292 260 78 83 91 96 74 67 68 148 98 110 109 261 382 680 756 532 393 552 779 783 835 947 1014 1024 1036 906 673 590 594 610 626 637 616 543 491 501 556 661 828 1032 1248 1394 1550 1657 1724
7 10 14 18 18 22 34 48 54 42 35 44 44 29 24 21 20 18 79 108 141 254 294 160 230 298 330 296 282 219 141 92 54 38 54 51 34 22 48 19 71 170 415 905 915 601 516 740 660 678 795 812 914 1005 1016 808 570 524 514 512 509 483 430 161 115 482 561 637 753 933 1092 1226 1332 1414
2 2 6 15 33 48 51 44 10 15 13 18 24 7 2 5 2 0 0 1 2 4 1 0 1 2 1 0 0 0 0 14 19 32 11 7 10 8 21 22 34 50 133 432 754 679 467 664 734 732 842 852 799 924 1134 1242 896 594 499 463 471 478 494 518 574 644 710 745 778 858 1018 1224 1330 1388
0 0 2 41 58 48 27 16 1 11 26 38 16 8 7 6 3 0 0 0 0 3 4 1 0 0 0 0 0 0 0 0 2 18 2 0 0 1 6 8 12 15 46 144 476 304 202 433 658 777 758 778 940 1005 1212 1336 1229 767 742 724 740 782 820 853 860 884 912 943 959 990 1044 1164 1279 1397
0 0 0 1 27 40 54 3 0 0 9 22 10 8 9 7 4 0 2 4 6 9 8 7 4 6 1 3 3 1 0 0 0 8 13 11 8 5 2 5 12 11 6 57 299 222 252 402 518 684 678 545 884 1180 1037 1320 1478 1486 1568 1494 1484 968 840 822 828 878 958 1018 1102 1166 1205 1265 1372 1504
6 1 0 0 0 0 0 0 0 0 0 4 5 12 17 13 4 2 9 14 15 15 15 16 16 16 17 15 12 8 2 0 0 0 4 8 12 14 14 6 6 6 2 96 824 503 453 391 374 953 548 345 304 1033 1288 1191 1360 1310 1520 1487 1640 1216 776 790 932 990 1030 1154 1360 1542 1630 1750 1842 1874
6 2 0 0 0 0 0 0 0 0 0 1 16 23 22 15 14 23 20 10 12 11 11 12 17 18 16 16 12 9 5 0 1 2 2 4 6 8 11 9 7 6 0 0 342 357 171 423 334 522 672 868 737 601 752 861 884 1065 1285 1402 1450 1644 1699 1805 1556 1649 815 968 1418 1925 2071 2134 2168 2190
10 6 1 0 0 0 0 0 0 0 0 0 5 16 5 2 0 2 6 5 6 7 8 8 11 16 14 6 8 7 6 4 6 6 6 10 18 21 16 14 12 10 5 2 0 73 70 150 233 248 362 386 507 663 569 758 924 840 1304 1260 1145 1356 1487 1369 1486 1711 1830 1618 1226 1872 2002 1877 1853 1920
0 0 0 0 0 0 0 0 0 0 0 0 0 0 0 0 0 0 0 2 4 6 7 9 8 10 8 8 9 10 6 4 7 9 8 9 13 16 15 18 18 16 12 10 8 15 51 104 157 170 195 239 243 330 490 468 635 1166 1024 1160 1241 1426 1663 1808 1891 2122 2336 2114 1722 1564 1535 1468 1400 1534
0 0 0 0 0 0 0 0 0 1 2 1 0 0 0 0 0 0 1 2 2 8 7 8 10 10 9 10 6 4 4 1 1 1 0 2 1 1 2 3 11 20 22 20 13 7 9 20 97 184 338 332 372 380 333 551 662 766 784 876 941 1037 1296 1493 1588 1612 1676 1846 1714 1280 1168 1039 1062 1177
0 0 0 0 0 0 2 3 5 8 7 6 4 2 0 0 1 1 1 1 1 4 5 8 8 9 11 7 4 2 1 1 0 0 1 3 2 1 2 2 4 6 18 18 16 13 18 36 62 129 228 404 223 450 548 481 621 760 791 719 736 937 1242 1380 1342 1496 1748 1930 1810 1546 1378 1400 1446 1383
0 0 0 0 3 6 4 4 5 3 1 1 0 0 0 0 0 1 2 1 1 2 2 4 4 2 2 0 0 0 0 0 1 1 1 7 7 5 16 11 4 2 0 0 0 0 2 5 34 192 317 373 442 468 529 543 618 661 804 782 790 866 1008 1178 1358 1550 1684 1792 1825 1778 1613 1416 1306 1110
0 1 2 5 8 6 4 5 5 2 0 0 1 0 1 2 1 0 2 0 0 2 2 1 1 3 8 5 0 1 2 2 5 1 0 6 10 20 19 11 2 2 1 0 0 0 0 0 2 20 126 241 364 426 493 563 519 533 767 915 931 886 1368 1467 1607 1754 1918 1721 1732 1746 1559 1515 1412 1284
2 2 4 4 4 3 4 5 4 2 1 0 0 2 1 1 2 2 4 5 4 8 5 5 6 10 14 12 3 0 4 9 7 0 2 4 6 10 16 15 5 2 2 1 0 0 4 5 6 14 22 78 195 369 684 668 559 587 756 880 990 1048 1057 1116 1334 1536 1888 1633 1666 1685 1600 1553 1428 1329
0 0 0 0 2 4 6 5 5 5 4 4 5 6 5 4 5 5 4 4 6 9 9 9 8 7 8 8 14 13 6 6 3 2 5 6 4 3 10 10 6 8 8 12 20 18 20 36 60 48 58 84 194 444 568 311 582 755 857 966 1084 1022 1133 1208 1304 1362 1524 1317 1426 1595 1638 1604 1465 1410
2 3 3 2 2 5 4 5 4 3 4 4 4 5 6 6 3 2 2 2 2 1 1 4 4 6 10 8 9 16 14 14 10 5 3 5 10 8 7 4 2 9 8 5 10 11 54 60 31 110 144 360 322 535 618 620 484 750 893 1012 1149 1246 1267 1356 1474 1409 1491 1458 1510 1586 1469 1520 1586 1500
4 9 7 3 2 2 4 6 5 4 4 9 6 5 4 4 7 9 8 10 13 17 19 19 29 30 21 13 13 8 19 23 34 26 30 22 17 4 10 6 2 26 5 6 16 16 38 23 11 108 304 154 113 300 276 407 768 894 1064 1100 1221 1243 1406 1474 1611 1654 1447 1529 1480 1283 1581 1633 1758 1537
8 8 5 4 8 3 2 3 5 5 2 3 5 6 10 11 15 14 11 17 19 16 13 13 13 14 16 10 10 10 11 16 13 19 16 15 32 49 55 20 20 14 27 17 19 86 76 41 408 187 186 218 58 154 283 350 436 663 797 855 1199 1486 1386 1607 1867 1883 1390 1376 1450 1414 1405 1493 1673 1586
9 6 4 6 10 8 3 6 6 7 12 10 8 7 5 3 1 1 1 0 3 5 4 4 8 13 11 9 10 11 10 10 6 9 11 15 12 18 20 54 50 54 69 50 55 156 285 29 43 88 39 39 173 344 490 300 260 403 407 520 1006 1198 1317 1145 1041 1558 1445 1540 1388 1425 1284 1458 1313 1272
5 2 0 2 6 2 1 4 4 4 8 9 8 8 8 6 6 6 5 4 3 2 4 6 5 14 16 12 2 3 14 52 31 8 8 8 5 10 27 35 42 76 82 159 324 276 192 18 2 54 258 332 208 270 528 44 376 430 438 447 470 652 856 977 980 1337 1193 1030 1039 1072 1202 1251 1197 1181
8 8 6 5 5 2 4 6 8 11 14 17 15 12 13 13 10 8 6 2 3 3 3 4 3 4 4 6 15 6 3 28 51 52 56 50 34 27 26 25 64 39 154 113 198 104 179 89 66 62 374 336 334 391 476 666 324 442 343 427 593 709 922 970 948 847 844 931 704 693 728 745 827 940
12 15 12 10 9 4 1 2 3 6 6 6 5 10 8 2 1 2 4 3 2 12 15 2 3 8 28 36 18 12 6 11 18 27 46 68 79 74 51 34 35 43 50 37 143 242 202 183 190 287 452 649 689 589 444 262 349 426 480 496 540 660 692 617 591 546 616 614 700 747 840 866 904 893
6 6 6 6 5 2 1 4 4 2 2 1 0 0 10 1 26 43 18 4 2 3 13 28 28 41 43 32 17 12 11 18 39 49 52 50 51 84 108 84 82 74 63 50 68 182 491 505 557 369 405 262 112 279 276 261 384 400 501 520 483 572 545 590 666 603 640 668 747 770 772 883 976 1018
6 3 3 4 4 6 6 7 6 4 1 0 1 2 1 28 36 39 42 45 50 35 18 6 22 31 30 38 43 28 24 41 58 80 106 126 59 69 110 80 254 323 99 54 72 155 380 478 367 404 236 86 19 206 246 216 281 375 341 491 496 606 664 540 558 511 395 553 598 539 564 593 638 728
5 4 3 2 4 5 6 6 8 10 5 3 2 4 17 39 30 16 26 31 32 28 28 19 12 12 24 24 38 41 40 63 67 68 80 88 96 82 72 88 106 117 100 117 116 236 352 212 466 524 233 95 210 256 408 355 340 359 371 416 523 516 423 443 398 321 287 293 283 382 594 701 713 833
4 3 2 3 4 7 9 12 10 10 10 8 7 22 36 27 10 4 4 4 12 21 27 20 20 17 14 15 25 36 33 36 41 44 40 60 103 123 108 102 111 111 112 101 100 74 115 112 457 771 297 161 183 286 324 95 224 78 314 321 229 346 381 278 138 156 245 280 363 455 609 580 339 266
3 2 3 6 8 8 5 6 7 12 17 11 8 11 12 14 16 13 11 8 8 8 8 7 10 16 21 23 21 16 18 16 22 28 38 44 61 83 128 132 116 98 100 124 92 65 87 123 84 242 143 188 270 281 276 226 192 107 255 52 332 318 331 154 56 196 260 284 343 341 406 536 571 495
Wind_Speed
nan 30 30 31 30 31 32 32 33 32 32 32 31 31 29 28 25 25 26 25 26 30 32 30 30 32 30 28 27 26 24 22 20 21 20 19 19 17 15 13 12 11 9 9 9 10 10 10 10 10 9 8 9 8 9 10 9 11 10 11 12 9 6 8 12 7 4 11 13 11 12 11 9 9
31 32 nan nan 33 34 35 36 35 35 35 35 35 34 33 33 29 28 26 26 30 29 32 32 30 33 33 31 29 28 27 26 24 24 24 23 22 19 17 16 16 14 13 11 10 10 11 11 12 12 10 10 11 13 12 12 10 11 12 14 9 8 6 9 12 9 8 11 14 15 15 13 12 10
34 nan nan nan 35 35 36 37 nan nan nan nan 37 36 36 36 34 31 30 27 32 34 33 34 34 32 31 31 29 29 29 29 27 27 27 26 23 21 22 19 19 18 17 15 14 12 13 10 10 11 11 11 12 11 13 14 14 14 15 14 11 8 9 11 12 8 9 10 13 15 16 14 12 12
nan nan nan nan 36 36 37 nan nan nan nan nan 38 37 37 36 36 35 33 29 27 31 31 33 34 33 32 32 32 30 32 32 30 30 29 28 27 27 27 24 22 21 21 19 18 16 15 14 13 12 12 11 11 13 13 15 16 17 16 15 13 12 13 14 12 13 13 12 13 15 16 16 15 15
nan nan nan nan 36 38 38 nan nan nan nan nan nan nan 38 36 36 36 35 32 30 33 35 35 37 37 37 36 37 35 34 34 35 34 33 32 32 31 31 30 27 25 24 23 21 20 18 17 16 15 15 12 11 13 15 16 20 22 20 19 16 14 12 13 14 15 15 15 15 15 16 16 17 16
nan nan nan nan 36 38 nan nan nan nan nan nan nan nan nan 37 36 36 36 34 32 31 35 35 37 38 40 37 38 38 37 36 37 36 36 36 35 34 34 34 33 29 27 26 25 23 22 20 19 18 18 18 17 16 16 19 24 25 20 20 21 17 13 15 17 17 17 17 17 17 17 17 17 17
nan nan nan nan 37 39 nan nan nan nan nan nan nan nan nan nan nan 36 36 35 32 30 32 35 34 35 39 39 37 39 40 38 38 38 38 38 38 37 36 36 36 33 30 29 28 27 25 24 23 21 20 20 20 21 23 22 20 20 16 18 18 18 19 20 19 19 19 19 19 19 19 18 18 18
nan nan nan nan nan nan nan nan nan nan nan nan nan nan nan nan nan 36 36 37 35 33 30 33 33 35 35 38 40 41 41 40 40 40 39 39 39 38 39 38 37 36 33 31 30 29 29 28 26 25 24 23 23 24 29 23 19 19 19 17 16 19 21 22 21 20 20 21 21 21 20 20 19 20
35 35 nan nan nan nan nan nan nan nan nan nan nan nan nan nan nan 36 36 36 36 34 32 32 33 33 34 36 37 40 41 42 42 41 40 39 39 39 39 40 39 37 35 33 31 31 31 30 30 28 27 27 26 27 28 28 25 24 23 21 19 20 21 21 22 22 22 22 22 22 22 21 21 21
nan nan nan nan 35 nan nan 37 nan nan nan nan nan nan nan nan 37 37 36 37 37 36 35 34 33 35 34 35 37 39 42 43 42 41 41 41 41 40 40 41 42 42 42 42 41 39 37 34 32 30 30 30 30 29 29 28 27 26 24 22 21 20 20 21 22 23 23 23 23 23 23 23 22 22
nan nan nan 35 nan 35 nan nan nan nan nan nan nan nan nan nan nan nan nan nan 37 38 37 37 37 36 37 37 36 38 43 43 43 42 42 41 43 44 43 41 43 44 42 41 39 39 38 38 38 38 35 34 33 32 32 31 29 28 26 25 24 22 22 21 22 23 24 24 25 25 24 24 23 23
nan nan nan nan nan nan nan nan nan nan nan nan nan nan nan nan nan nan nan nan 41 40 39 39 39 40 39 39 40 41 42 43 44 46 45 42 42 43 45 43 41 43 43 42 42 42 41 41 39 37 36 35 34 35 35 33 32 30 29 28 26 25 24 23 23 23 24 25 26 26 26 25 24 23
nan nan nan nan nan nan 34 31 32 33 34 37 37 40 43 43 nan 42 43 43 43 41 40 40 42 41 41 41 41 41 42 43 43 46 48 44 42 43 43 43 43 42 41 42 42 42 43 43 42 43 43 42 41 39 38 38 35 33 31 30 29 28 27 26 24 24 24 24 25 26 26 26 25 25
nan nan nan nan nan 35 36 36 36 37 37 36 38 39 41 41 41 42 43 44 45 43 42 41 43 43 42 43 44 43 43 44 46 45 46 44 44 44 43 44 44 46 45 43 42 42 45 43 42 43 43 44 44 44 44 43 41 39 36 33 31 30 29 28 27 25 24 24 25 26 26 26 26 26
nan nan nan nan nan nan nan nan 39 39 38 38 36 35 34 37 39 40 40 41 43 44 43 44 45 45 44 44 46 45 45 46 45 46 47 45 46 46 45 43 46 49 49 47 46 43 46 45 42 41 41 43 45 45 44 42 39 37 35 34 33 32 31 30 29 28 27 26 25 26 26 27 27 27
nan nan nan nan nan nan nan 40 40 39 36 nan 35 nan nan 35 34 35 39 41 nan 41 42 43 43 44 44 45 47 47 48 46 47 47 46 47 46 46 46 45 44 49 51 47 44 41 42 45 42 39 40 41 43 43 42 41 40 38 36 35 34 33 33 32 30 30 29 28 27 26 26 27 27 28
nan nan nan nan nan nan nan nan nan nan nan nan nan 35 35 36 36 39 39 38 41 43 41 42 42 44 45 45 46 48 50 52 48 49 48 48 48 46 46 45 45 45 51 48 45 41 42 44 42 39 39 40 41 41 40 38 39 39 38 36 35 33 33 32 31 30 30 29 28 28 27 27 27 27
nan nan nan nan nan nan nan nan nan nan nan nan nan nan nan nan nan 39 38 39 38 41 45 44 nan 46 49 47 49 50 53 52 52 52 50 50 50 49 48 47 46 46 49 45 46 42 41 43 43 40 40 41 41 40 38 37 38 38 38 38 37 35 33 32 32 31 30 30 29 29 28 27 26 26
nan nan nan nan nan nan nan nan nan nan nan nan nan nan nan nan nan nan 45 47 48 47 47 49 49 47 48 48 51 nan nan nan nan nan nan nan 51 nan 49 47 46 45 46 45 45 43 43 45 43 41 41 42 42 41 39 36 35 35 36 37 38 37 35 32 32 32 31 31 30 30 30 29 27 26
nan nan nan nan nan nan nan nan nan nan nan nan nan nan nan nan nan nan nan 45 46 46 48 49 48 49 49 50 50 51 52 nan nan nan nan nan nan nan nan nan nan 47 48 49 48 45 43 46 45 43 43 44 42 42 42 39 34 34 34 35 36 37 37 35 33 32 32 32 31 30 30 30 29 28
nan nan nan nan nan nan nan nan nan nan nan nan nan nan nan nan nan nan nan nan nan nan nan nan nan nan nan nan nan nan nan nan nan nan nan nan nan nan nan nan nan nan 50 50 51 47 44 47 47 45 45 45 43 43 43 43 40 35 34 35 36 37 38 38 36 33 32 32 31 31 31 31 31 31
nan nan nan nan nan nan nan nan nan nan nan nan nan nan nan nan nan nan nan nan nan nan nan nan nan nan nan nan nan nan nan nan nan nan nan nan nan nan nan nan nan nan nan 48 51 49 47 49 49 47 47 46 46 44 44 44 44 42 41 39 38 38 38 37 37 36 34 32 32 32 32 32 35 36
nan nan nan nan nan nan nan nan nan nan nan nan nan nan nan nan nan nan nan nan nan nan nan nan nan nan nan nan nan nan nan nan nan nan nan nan nan nan nan nan nan nan nan nan 51 47 48 50 50 49 50 48 49 49 46 46 48 48 47 46 44 41 39 39 39 39 37 35 33 33 34 36 39 36
nan nan nan nan nan nan nan nan nan nan nan nan nan nan nan nan nan nan nan nan nan nan nan nan nan nan nan nan nan nan nan nan nan nan nan nan nan nan nan nan nan nan nan nan 52 48 49 50 50 52 48 47 47 51 50 48 48 48 49 47 46 44 44 43 43 41 39 38 37 36 37 39 39 37
nan nan nan nan nan nan nan nan nan nan nan nan nan nan nan nan nan nan nan nan nan nan nan nan nan nan nan nan nan nan nan nan nan nan nan nan nan nan nan nan nan nan nan nan 47 46 45 48 46 49 48 47 46 45 45 46 46 47 48 48 47 47 47 45 45 45 46 43 41 40 39 39 38 36
nan nan nan nan nan nan nan nan nan nan nan nan nan nan nan nan nan nan nan nan nan nan nan nan nan nan nan nan nan nan nan nan nan nan nan nan nan nan nan nan nan nan nan nan nan nan nan 42 43 44 45 45 43 43 42 43 46 46 48 48 47 46 47 45 45 45 45 45 44 45 42 39 38 35
nan nan nan nan nan nan nan nan nan nan nan nan nan nan nan nan nan nan nan nan nan nan nan nan nan nan nan nan nan nan nan nan nan nan nan nan nan nan nan nan nan nan nan nan nan nan nan 40 42 41 41 42 42 43 42 41 44 50 48 49 48 48 48 48 46 46 46 45 44 47 44 42 39 37
nan nan nan nan nan nan nan nan nan nan nan nan nan nan nan nan nan nan nan nan nan nan nan nan nan nan nan nan nan nan nan nan nan nan nan nan nan nan nan nan nan nan nan nan nan nan nan nan nan 38 38 39 40 40 40 42 41 43 44 47 47 46 46 47 46 45 44 45 44 44 42 41 41 41
nan nan nan nan nan nan nan nan nan nan nan nan nan nan nan nan nan nan nan nan nan nan nan nan nan nan nan nan nan nan nan nan nan nan nan nan nan nan nan nan nan nan nan nan nan nan nan nan nan 34 35 35 35 37 40 40 41 41 43 45 45 47 48 47 46 44 45 46 45 42 40 39 40 40
nan nan nan nan nan nan nan nan nan nan nan nan nan nan nan nan nan nan nan nan nan nan nan nan nan nan nan nan nan nan nan nan nan nan nan nan nan nan nan nan nan nan nan nan nan nan nan nan nan 33 33 33 34 34 37 39 39 39 41 41 43 45 44 44 43 44 44 43 44 43 41 40 38 39
nan nan nan nan nan nan nan nan nan nan nan nan nan nan nan nan nan nan nan nan nan nan nan nan nan nan nan nan nan nan nan nan nan nan nan nan nan nan nan nan nan nan nan nan nan nan nan nan nan nan 31 32 33 32 34 37 37 38 39 41 42 41 47 49 47 47 47 45 45 43 42 41 39 38
nan nan nan nan nan nan nan nan nan nan nan nan nan nan nan nan nan nan nan nan nan nan nan nan nan nan nan nan nan nan nan nan nan nan nan nan nan nan nan nan nan nan nan nan nan nan nan nan nan nan nan nan 30 32 35 34 34 35 36 39 40 40 40 41 43 43 46 46 43 42 41 41 39 38
nan nan nan nan nan nan nan nan nan nan nan nan nan nan nan nan nan nan nan nan nan nan nan nan nan nan nan nan nan nan nan nan nan nan nan nan nan nan nan nan nan nan nan nan nan nan nan nan nan nan nan nan 28 29 31 30 30 32 33 36 39 38 39 40 40 41 43 43 40 41 41 40 39 38
nan nan nan nan nan nan nan nan nan nan nan nan nan nan nan nan nan nan nan nan nan nan nan nan nan nan nan nan nan nan nan nan nan nan nan nan nan nan nan nan nan nan nan nan nan nan nan nan nan 31 30 29 28 28 28 28 29 31 32 33 35 36 38 40 40 40 41 40 41 41 39 39 40 40
nan nan nan nan nan nan nan nan nan nan nan nan nan nan nan nan nan nan nan nan nan nan nan nan nan nan nan nan nan nan nan nan nan nan nan nan nan nan nan nan nan nan nan nan nan nan nan nan nan 31 32 29 29 28 36 34 29 29 31 31 32 32 35 38 40 42 41 41 41 38 37 38 39 41
nan nan nan nan nan nan nan nan nan nan nan nan nan nan nan nan nan nan nan nan nan nan nan nan nan nan nan nan nan nan nan nan nan nan nan nan nan nan nan nan nan nan nan nan nan nan nan nan 28 28 29 31 nan 31 31 41 41 34 31 30 33 33 33 36 40 41 40 40 40 39 37 36 39 40
nan nan nan nan nan nan nan nan nan nan nan nan nan nan nan nan nan nan nan nan nan nan nan nan nan nan nan nan nan nan nan nan nan nan nan nan nan nan nan nan nan nan nan nan nan 19 21 nan nan nan nan nan 30 29 33 41 44 45 36 31 32 33 33 33 33 36 39 41 40 38 37 37 39 43
nan nan nan nan nan nan nan nan nan nan nan nan nan nan nan nan nan nan nan nan nan nan nan nan nan nan nan nan nan nan nan nan nan nan nan nan nan nan nan nan nan nan nan 14 18 18 20 nan nan nan 24 24 25 26 28 nan 35 40 43 36 33 35 40 37 35 37 41 43 42 43 42 40 43 45
nan nan nan nan nan nan nan nan nan nan nan nan nan nan nan nan nan nan nan nan nan nan nan nan nan nan nan nan nan nan nan nan nan nan nan nan nan nan nan nan nan nan 16 14 17 17 20 nan nan nan 22 21 20 22 25 30 34 38 40 43 35 34 36 37 38 38 37 39 41 44 46 45 44 43
nan nan nan nan nan nan nan nan nan nan nan nan nan nan nan nan nan nan nan nan nan nan nan nan nan nan nan nan nan nan nan nan nan nan nan nan nan nan nan nan nan nan nan nan 16 17 18 18 18 18 18 19 21 28 32 36 36 34 37 41 45 38 36 36 37 35 35 38 40 39 40 40 41 41
nan nan nan nan nan nan nan nan nan nan nan nan nan nan nan nan nan nan nan nan nan nan nan nan nan nan nan nan nan nan nan nan nan nan nan nan nan nan 14 nan nan nan nan nan nan 16 16 17 17 17 17 23 27 30 30 31 31 30 34 36 40 46 45 42 37 36 37 38 37 38 39 38 39 40
nan nan nan nan nan nan nan nan nan nan nan nan nan nan nan nan nan nan nan nan nan nan nan nan nan nan nan nan nan nan nan nan nan nan 17 18 nan nan 10 nan 14 14 nan nan nan 17 17 18 14 15 20 nan nan 21 21 24 27 29 30 31 32 38 45 46 46 43 38 34 34 36 37 37 38 39
nan nan nan nan nan nan nan nan nan nan nan nan nan nan nan nan nan nan nan nan nan nan nan nan nan nan nan nan nan nan nan nan nan nan nan nan nan nan nan nan 14 14 nan 13 15 17 20 17 12 14 18 nan 19 16 19 24 25 26 26 27 28 28 33 41 46 49 49 46 39 33 31 31 32 32
nan nan nan nan nan nan nan nan nan nan nan nan nan nan nan nan nan nan nan nan nan nan nan nan nan nan nan nan nan nan nan nan nan nan nan nan 17 14 13 12 13 14 14 13 13 nan 16 13 11 14 16 18 19 21 26 nan 24 nan 23 24 25 28 30 30 33 39 44 50 49 42 43 43 41 41
nan nan nan nan nan nan nan nan nan nan nan nan nan nan nan nan nan nan nan nan nan nan nan nan nan nan nan nan nan nan nan nan nan nan nan nan nan nan 11 12 14 nan 10 9 nan nan nan 11 nan 15 17 20 21 22 20 23 23 22 22 nan 29 30 29 31 nan 36 37 37 42 46 47 49 50 51
Wind_Direction
nan 275 274 275 276 276 276 276 276 277 278 280 281 284 284 284 280 273 276 276 273 272 274 267 267 270 268 267 266 267 268 268 269 269 271 271 272 277 286 292 295 297 295 287 281 277 275 273 273 278 282 282 282 282 281 284 291 292 288 280 277 274 264 261 267 266 270 289 301 307 298 288 290 298
274 274 nan nan 275 276 276 277 278 278 278 278 278 280 282 284 283 280 275 271 277 272 273 275 269 267 265 264 263 264 265 267 268 267 269 271 271 276 282 285 288 289 289 287 284 282 278 276 270 267 267 267 269 275 281 283 283 285 282 272 263 262 250 254 257 259 265 276 290 292 291 293 293 294
274 nan nan nan 275 276 277 278 nan nan nan nan 278 278 279 281 284 281 278 272 272 272 270 272 272 266 262 263 260 260 262 262 262 264 266 267 268 271 271 277 280 282 285 285 285 284 282 287 285 284 279 273 271 270 272 279 282 276 277 281 271 253 254 254 266 258 255 275 281 285 288 293 296 296
nan nan nan nan 280 279 280 nan nan nan nan nan 278 278 278 279 280 281 279 278 272 271 271 271 270 268 265 264 263 260 260 262 262 263 264 265 265 266 266 269 274 276 278 280 281 282 283 284 289 294 293 287 283 278 274 272 270 265 259 262 267 262 265 280 294 307 301 296 286 285 289 293 294 295
nan nan nan nan 284 284 284 nan nan nan nan nan nan nan 280 278 277 277 277 275 272 272 272 270 270 269 268 266 269 265 262 261 261 262 263 261 263 264 265 264 266 269 271 274 277 278 280 281 283 286 288 288 286 283 280 275 269 264 269 278 278 275 268 275 285 281 287 289 287 286 288 291 291 290
nan nan nan nan 287 288 nan nan nan nan nan nan nan nan nan 279 277 277 276 274 271 266 267 265 266 268 272 271 269 266 262 259 259 258 259 260 261 262 263 264 264 267 267 269 271 274 276 277 278 279 280 284 288 284 278 269 262 262 263 267 272 276 279 275 274 277 278 280 282 285 285 285 286 287
nan nan nan nan 292 290 nan nan nan nan nan nan nan nan nan nan nan 277 278 275 271 266 265 267 264 265 269 271 267 266 267 263 261 259 258 259 259 261 261 262 262 264 266 267 268 269 271 272 273 273 273 275 277 278 276 270 271 275 275 270 267 270 272 271 272 273 274 274 274 276 279 280 282 283
nan nan nan nan nan nan nan nan nan nan nan nan nan nan nan nan nan 274 274 275 273 269 263 266 265 264 262 267 270 269 268 266 263 262 259 260 260 259 260 261 260 261 262 263 266 267 269 270 270 271 272 273 273 274 283 289 288 287 288 284 278 271 266 265 266 268 271 272 272 272 274 276 279 281
292 291 nan nan nan nan nan nan nan nan nan nan nan nan nan nan nan 274 273 272 273 271 269 266 268 267 266 265 264 266 266 266 266 265 262 260 258 257 258 260 260 259 260 261 261 262 264 266 267 269 269 269 270 270 275 284 286 285 287 288 282 276 271 266 265 266 267 269 270 270 271 273 275 278
nan nan nan nan 288 nan nan 288 nan nan nan nan nan nan nan nan 278 277 275 274 273 273 272 270 268 269 268 266 266 265 266 266 264 264 264 263 262 260 258 260 260 260 260 260 261 262 262 262 263 263 264 264 266 268 271 273 275 276 278 279 279 279 277 272 268 266 266 266 267 268 269 270 272 275
nan nan nan 289 nan 289 nan nan nan nan nan nan nan nan nan nan nan nan nan nan 276 275 274 273 273 272 272 271 268 267 267 268 269 267 264 262 263 264 262 259 259 261 259 261 262 260 258 255 256 258 260 261 262 263 265 268 271 272 274 276 278 279 279 277 274 270 267 266 266 267 267 268 268 271
nan nan nan nan nan nan nan nan nan nan nan nan nan nan nan nan nan nan nan nan 280 278 277 276 275 274 272 271 271 270 267 265 267 270 269 266 264 263 263 262 258 259 260 257 257 260 260 260 261 260 259 259 259 259 260 263 265 267 268 269 272 274 275 276 276 274 271 269 268 267 267 268 268 268
nan nan nan nan nan nan 291 293 290 287 285 285 283 285 286 286 nan 283 282 282 280 280 279 278 277 275 274 273 271 269 269 269 268 266 267 266 265 264 263 263 265 264 261 261 260 259 259 258 259 260 259 259 258 259 262 258 260 261 262 264 265 266 268 271 274 274 273 271 269 267 266 266 267 268
nan nan nan nan nan 283 282 281 280 279 278 278 280 280 280 279 279 280 280 281 282 281 280 278 276 275 275 274 273 272 271 269 268 267 267 265 265 264 263 265 267 266 264 262 261 260 261 261 259 259 259 259 260 258 259 258 257 257 259 260 262 263 264 266 269 271 272 272 272 270 267 266 266 267
nan nan nan nan nan nan nan nan 281 280 278 278 276 275 275 277 279 278 277 278 279 278 279 277 276 277 276 275 275 274 272 271 269 268 267 265 264 264 262 260 261 265 264 262 260 260 262 261 259 257 258 257 258 259 260 259 259 258 255 254 256 258 260 261 262 265 267 269 271 271 270 268 266 265
nan nan nan nan nan nan nan 285 284 283 281 nan 278 nan nan 277 276 277 279 277 nan 276 276 276 277 276 275 274 274 273 272 271 269 268 266 266 264 263 262 262 261 262 262 260 258 256 258 261 260 258 258 257 258 258 257 258 260 259 257 255 253 253 255 256 258 260 262 265 268 271 271 271 269 268
nan nan nan nan nan nan nan nan nan nan nan nan nan 279 278 278 278 279 278 278 279 278 275 275 274 275 272 272 271 269 267 264 265 264 263 263 262 261 260 260 259 258 260 259 257 255 256 257 257 256 256 256 256 256 258 258 257 257 258 258 256 254 252 253 255 256 258 261 265 268 270 271 271 270
nan nan nan nan nan nan nan nan nan nan nan nan nan nan nan nan nan 278 277 276 275 275 276 276 nan 272 272 271 270 269 269 268 266 265 264 261 260 259 258 256 256 256 259 257 255 255 254 256 256 254 254 255 256 256 255 255 255 254 255 256 258 258 255 253 253 255 256 257 261 265 268 270 272 272
nan nan nan nan nan nan nan nan nan nan nan nan nan nan nan nan nan nan 281 280 279 278 277 276 275 274 274 272 271 nan nan nan nan nan nan nan 261 nan 258 257 258 257 260 259 258 256 254 255 254 253 252 251 253 254 253 255 256 255 253 253 255 257 258 256 253 252 254 255 257 260 264 267 270 272
nan nan nan nan nan nan nan nan nan nan nan nan nan nan nan nan nan nan nan 283 280 279 278 278 278 276 275 275 273 271 269 nan nan nan nan nan nan nan nan nan nan 256 257 260 260 256 254 255 254 252 252 251 250 251 252 252 254 254 254 253 253 254 256 257 255 253 252 254 255 257 261 264 267 268
nan nan nan nan nan nan nan nan nan nan nan nan nan nan nan nan nan nan nan nan nan nan nan nan nan nan nan nan nan nan nan nan nan nan nan nan nan nan nan nan nan nan 257 257 260 258 254 254 253 250 251 252 250 248 250 251 252 253 252 252 250 250 250 254 256 255 254 253 254 256 258 261 263 265
nan nan nan nan nan nan nan nan nan nan nan nan nan nan nan nan nan nan nan nan nan nan nan nan nan nan nan nan nan nan nan nan nan nan nan nan nan nan nan nan nan nan nan 257 258 255 255 254 254 250 249 249 254 252 251 250 251 250 250 252 252 250 251 252 255 257 255 254 253 254 257 258 260 260
nan nan nan nan nan nan nan nan nan nan nan nan nan nan nan nan nan nan nan nan nan nan nan nan nan nan nan nan nan nan nan nan nan nan nan nan nan nan nan nan nan nan nan nan 260 255 253 254 255 254 250 250 251 253 251 250 249 249 248 248 249 252 251 250 253 255 256 255 254 254 255 257 261 256
nan nan nan nan nan nan nan nan nan nan nan nan nan nan nan nan nan nan nan nan nan nan nan nan nan nan nan nan nan nan nan nan nan nan nan nan nan nan nan nan nan nan nan nan 261 258 255 254 253 257 253 248 247 250 251 249 249 249 248 246 247 244 247 249 251 255 256 255 254 252 253 260 263 256
nan nan nan nan nan nan nan nan nan nan nan nan nan nan nan nan nan nan nan nan nan nan nan nan nan nan nan nan nan nan nan nan nan nan nan nan nan nan nan nan nan nan nan nan 258 256 254 256 253 254 253 253 249 246 247 248 249 248 249 249 247 247 247 247 249 251 256 256 256 256 256 259 265 259
nan nan nan nan nan nan nan nan nan nan nan nan nan nan nan nan nan nan nan nan nan nan nan nan nan nan nan nan nan nan nan nan nan nan nan nan nan nan nan nan nan nan nan nan nan nan nan 253 255 253 253 252 249 249 243 244 248 248 249 249 247 246 246 244 246 248 251 252 253 257 257 260 260 261
nan nan nan nan nan nan nan nan nan nan nan nan nan nan nan nan nan nan nan nan nan nan nan nan nan nan nan nan nan nan nan nan nan nan nan nan nan nan nan nan nan nan nan nan nan nan nan 253 255 256 254 253 250 248 247 243 244 249 248 249 247 246 247 246 244 245 248 250 251 257 258 257 256 257
nan nan nan nan nan nan nan nan nan nan nan nan nan nan nan nan nan nan nan nan nan nan nan nan nan nan nan nan nan nan nan nan nan nan nan nan nan nan nan nan nan nan nan nan nan nan nan nan nan 255 256 254 253 252 248 247 244 244 245 245 246 245 246 247 245 244 246 250 251 253 253 252 253 252
nan nan nan nan nan nan nan nan nan nan nan nan nan nan nan nan nan nan nan nan nan nan nan nan nan nan nan nan nan nan nan nan nan nan nan nan nan nan nan nan nan nan nan nan nan nan nan nan nan 256 256 257 255 253 251 247 244 242 245 245 244 247 247 246 245 244 245 246 248 249 250 250 253 253
nan nan nan nan nan nan nan nan nan nan nan nan nan nan nan nan nan nan nan nan nan nan nan nan nan nan nan nan nan nan nan nan nan nan nan nan nan nan nan nan nan nan nan nan nan nan nan nan nan 255 256 258 257 253 251 247 245 243 243 244 243 241 244 245 245 245 245 245 246 248 248 250 251 253
nan nan nan nan nan nan nan nan nan nan nan nan nan nan nan nan nan nan nan nan nan nan nan nan nan nan nan nan nan nan nan nan nan nan nan nan nan nan nan nan nan nan nan nan nan nan nan nan nan nan 253 254 257 257 251 248 244 242 242 244 245 245 247 247 245 244 246 244 244 245 247 248 250 252
nan nan nan nan nan nan nan nan nan nan nan nan nan nan nan nan nan nan nan nan nan nan nan nan nan nan nan nan nan nan nan nan nan nan nan nan nan nan nan nan nan nan nan nan nan nan nan nan nan nan nan nan 254 255 255 252 247 245 242 243 245 244 244 243 243 243 245 244 243 243 244 245 247 249
nan nan nan nan nan nan nan nan nan nan nan nan nan nan nan nan nan nan nan nan nan nan nan nan nan nan nan nan nan nan nan nan nan nan nan nan nan nan nan nan nan nan nan nan nan nan nan nan nan nan nan nan 256 256 254 253 251 248 245 244 246 244 244 244 244 242 243 242 240 241 242 244 245 245
nan nan nan nan nan nan nan nan nan nan nan nan nan nan nan nan nan nan nan nan nan nan nan nan nan nan nan nan nan nan nan nan nan nan nan nan nan nan nan nan nan nan nan nan nan nan nan nan nan 246 250 252 254 258 259 256 252 251 249 247 245 246 245 245 244 244 244 242 240 241 240 242 245 247
nan nan nan nan nan nan nan nan nan nan nan nan nan nan nan nan nan nan nan nan nan nan nan nan nan nan nan nan nan nan nan nan nan nan nan nan nan nan nan nan nan nan nan nan nan nan nan nan nan 247 248 251 252 253 249 248 254 251 249 247 246 245 245 246 244 245 245 244 243 241 240 240 243 248
nan nan nan nan nan nan nan nan nan nan nan nan nan nan nan nan nan nan nan nan nan nan nan nan nan nan nan nan nan nan nan nan nan nan nan nan nan nan nan nan nan nan nan nan nan nan nan nan 251 251 251 252 nan 252 254 246 246 249 250 246 245 246 245 247 247 245 244 243 243 243 242 241 242 247
nan nan nan nan nan nan nan nan nan nan nan nan nan nan nan nan nan nan nan nan nan nan nan nan nan nan nan nan nan nan nan nan nan nan nan nan nan nan nan nan nan nan nan nan nan 263 261 nan nan nan nan nan 252 253 252 252 246 244 246 246 243 244 244 246 246 246 243 243 243 243 241 241 243 245
nan nan nan nan nan nan nan nan nan nan nan nan nan nan nan nan nan nan nan nan nan nan nan nan nan nan nan nan nan nan nan nan nan nan nan nan nan nan nan nan nan nan nan 273 273 269 267 nan nan nan 253 250 251 252 254 nan 252 245 238 242 245 245 245 249 251 247 244 243 241 240 239 240 244 246
nan nan nan nan nan nan nan nan nan nan nan nan nan nan nan nan nan nan nan nan nan nan nan nan nan nan nan nan nan nan nan nan nan nan nan nan nan nan nan nan nan nan 282 277 274 271 269 nan nan nan 257 254 252 252 251 256 254 248 241 237 242 246 247 247 247 245 241 239 241 242 241 244 248 248
nan nan nan nan nan nan nan nan nan nan nan nan nan nan nan nan nan nan nan nan nan nan nan nan nan nan nan nan nan nan nan nan nan nan nan nan nan nan nan nan nan nan nan nan 274 269 270 270 269 263 259 256 248 244 245 250 252 248 244 238 235 242 241 239 244 244 243 239 238 243 244 244 244 240
nan nan nan nan nan nan nan nan nan nan nan nan nan nan nan nan nan nan nan nan nan nan nan nan nan nan nan nan nan nan nan nan nan nan nan nan nan nan 301 nan nan nan nan nan nan 268 271 269 271 280 269 252 253 254 253 252 252 247 243 241 237 239 239 238 238 238 239 236 236 240 243 243 245 243
nan nan nan nan nan nan nan nan nan nan nan nan nan nan nan nan nan nan nan nan nan nan nan nan nan nan nan nan nan nan nan nan nan nan 288 286 nan nan 281 nan 300 299 nan nan nan 259 257 257 263 270 264 nan nan 256 254 258 258 253 249 246 244 240 239 240 239 238 236 235 239 243 242 242 242 244
nan nan nan nan nan nan nan nan nan nan nan nan nan nan nan nan nan nan nan nan nan nan nan nan nan nan nan nan nan nan nan nan nan nan nan nan nan nan nan nan 294 296 nan 281 259 250 256 258 255 264 264 nan 250 253 245 247 254 254 252 249 245 242 240 237 237 236 233 231 231 234 237 239 243 245
nan nan nan nan nan nan nan nan nan nan nan nan nan nan nan nan nan nan nan nan nan nan nan nan nan nan nan nan nan nan nan nan nan nan nan nan 287 278 273 278 283 287 289 279 249 nan 248 263 264 262 259 257 255 248 250 nan 243 nan 246 246 245 240 238 235 235 234 232 227 227 235 240 242 242 243
nan nan nan nan nan nan nan nan nan nan nan nan nan nan nan nan nan nan nan nan nan nan nan nan nan nan nan nan nan nan nan nan nan nan nan nan nan nan 271 281 287 nan 281 266 nan nan nan 254 nan 253 243 245 250 260 254 253 253 250 243 nan 240 239 237 238 nan 236 234 233 226 233 243 247 249 253